Location: Unspecified
(0.0000°N, 0.0000°E)
Time: 21:11:44
(UTC+00:00)

DMSP 5D-2 F13 DEB - Pass Details

Date: 07 March 2026
Orbit: 780 x 797 km, 98.7° (Epoch: 11 April)

Event Time Altitude Azimuth Distance (km) Brightness Sun altitude
Rises 19:37:50 0° 182° (S) 3,263 ? -21.6°
Reaches altitude 10° 19:40:16 10° 190° (S) 2,334 ? -22.2°
Maximum altitude 19:45:02 39° 257° (WSW) 1,161 ? -23.4°
Drops below altitude 10° 19:49:48 10° 325° (NW) 2,333 ? -24.6°
Sets 19:52:16 0° 333° (NNW) 3,262 ? -25.2°
